Location: *
(34.6780°N, 135.8310°E)
Time: 13:41:23
(UTC+00:00)

BREEZE-M DEB (TANK) - Pass Details

Date: 18 October 2019
Orbit: 286 x 20937 km, 49.3° (Epoch: 14 November)

Event Time Altitude Azimuth Distance (km) Brightness Sun altitude
Rises 19:11:49 0° 219° (SW) 10,856 8.5 -24.0°
Reaches altitude 10° 19:22:59 10° 218° (SW) 6,835 7.5 -21.7°
Maximum altitude 19:36:55 58° 144° (SE) 1,156 4.0 -18.8°
Drops below altitude 10° 19:40:28 10° 64° (ENE) 1,838 6.0 -18.1°
Sets 19:41:46 0° 59° (ENE) 2,432 6.7 -17.8°
